TimeCDT,TemperatureF,Dew PointF,Humidity,Sea Level PressureIn,VisibilityMPH,Wind Direction,Wind SpeedMPH,Gust SpeedMPH,PrecipitationIn,Events,Conditions,WindDirDegrees,DateUTC
12:15 AM,36.1,28.4,73,30.14,10.0,SSE,10.4,-,N/A,,Mostly Cloudy,160,2012-10-11 05:15:00
12:35 AM,36.1,28.4,73,30.14,10.0,SSE,9.2,-,N/A,,Mostly Cloudy,160,2012-10-11 05:35:00
12:55 AM,38.7,29.8,71,30.13,10.0,SSE,10.4,-,N/A,,Scattered Clouds,160,2012-10-11 05:55:00
1:15 AM,38.7,30.2,72,30.13,10.0,SSE,9.2,-,N/A,,Clear,160,2012-10-11 06:15:00
1:35 AM,38.1,30.4,74,30.12,10.0,SSE,9.2,-,N/A,,Clear,160,2012-10-11 06:35:00
1:55 AM,39.2,30.2,70,30.12,10.0,South,10.4,-,N/A,,Clear,170,2012-10-11 06:55:00
2:15 AM,38.7,30.0,71,30.11,10.0,South,11.5,-,N/A,,Clear,170,2012-10-11 07:15:00
2:35 AM,38.7,30.2,72,30.10,10.0,South,12.7,-,N/A,,Clear,170,2012-10-11 07:35:00
2:55 AM,38.7,29.5,70,30.10,10.0,South,10.4,-,N/A,,Clear,170,2012-10-11 07:55:00
3:15 AM,40.5,30.2,67,30.09,10.0,South,15.0,-,N/A,,Clear,170,2012-10-11 08:15:00
3:35 AM,41.2,30.2,65,30.09,10.0,South,15.0,-,N/A,,Clear,170,2012-10-11 08:35:00
3:55 AM,41.2,30.9,67,30.09,10.0,South,15.0,19.6,N/A,,Clear,180,2012-10-11 08:55:00
4:15 AM,41.0,31.1,68,30.10,10.0,South,15.0,20.7,N/A,,Clear,180,2012-10-11 09:15:00
4:35 AM,41.2,30.7,66,30.09,10.0,South,16.1,-,N/A,,Clear,190,2012-10-11 09:35:00
4:55 AM,41.2,30.7,66,30.08,10.0,South,17.3,-,N/A,,Clear,190,2012-10-11 09:55:00
5:15 AM,41.0,32.0,70,30.08,10.0,South,19.6,25.3,N/A,,Clear,190,2012-10-11 10:15:00
5:35 AM,41.2,31.1,67,30.09,10.0,SSW,17.3,25.3,N/A,,Clear,200,2012-10-11 10:35:00
5:55 AM,41.2,31.6,69,30.08,10.0,South,18.4,25.3,N/A,,Clear,190,2012-10-11 10:55:00
6:15 AM,41.2,31.6,69,30.08,10.0,South,18.4,-,N/A,,Clear,190,2012-10-11 11:15:00
6:35 AM,41.2,32.0,70,30.08,10.0,South,18.4,-,N/A,,Clear,190,2012-10-11 11:35:00
6:55 AM,41.2,32.0,70,30.08,10.0,SSW,16.1,-,N/A,,Clear,200,2012-10-11 11:55:00
7:15 AM,41.0,32.0,70,30.08,10.0,SSW,17.3,26.5,N/A,,Clear,200,2012-10-11 12:15:00
7:35 AM,41.2,31.6,69,30.08,10.0,SSW,17.3,21.9,N/A,,Clear,200,2012-10-11 12:35:00
7:55 AM,43.7,32.9,66,30.09,10.0,SSW,17.3,21.9,N/A,,Clear,200,2012-10-11 12:55:00
8:15 AM,43.7,32.4,64,30.09,10.0,South,17.3,24.2,N/A,,Clear,190,2012-10-11 13:15:00
8:35 AM,44.6,32.2,62,30.08,10.0,SSW,17.3,-,N/A,,Clear,200,2012-10-11 13:35:00
8:55 AM,46.4,32.0,57,30.08,10.0,SSW,18.4,26.5,N/A,,Clear,200,2012-10-11 13:55:00
9:15 AM,48.2,33.8,58,30.08,10.0,SSW,20.7,24.2,N/A,,Clear,200,2012-10-11 14:15:00
9:35 AM,50.5,33.8,53,30.09,10.0,SSW,20.7,26.5,N/A,,Clear,200,2012-10-11 14:35:00
9:55 AM,54.0,34.9,49,30.09,10.0,SSW,21.9,26.5,N/A,,Clear,200,2012-10-11 14:55:00
10:15 AM,54.0,32.9,45,30.09,10.0,SSW,21.9,26.5,N/A,,Clear,200,2012-10-11 15:15:00
10:35 AM,56.3,33.3,42,30.09,10.0,SSW,15.0,29.9,N/A,,Clear,210,2012-10-11 15:35:00
10:55 AM,59.0,33.8,39,30.09,10.0,SW,18.4,25.3,N/A,,Clear,220,2012-10-11 15:55:00
11:15 AM,60.1,32.5,35,30.09,10.0,SSW,19.6,25.3,N/A,,Clear,200,2012-10-11 16:15:00
11:35 AM,61.7,31.8,33,30.09,10.0,SW,20.7,27.6,N/A,,Clear,220,2012-10-11 16:35:00
11:55 AM,63.5,31.5,30,30.09,10.0,SW,15.0,25.3,N/A,,Clear,230,2012-10-11 16:55:00
12:15 PM,64.4,30.2,28,30.08,10.0,SW,17.3,21.9,N/A,,Clear,230,2012-10-11 17:15:00
12:35 PM,64.0,30.9,29,30.08,10.0,WSW,18.4,25.3,N/A,,Clear,250,2012-10-11 17:35:00
12:55 PM,64.0,30.2,28,30.07,10.0,SW,15.0,24.2,N/A,,Clear,230,2012-10-11 17:55:00
1:15 PM,64.9,30.2,27,30.07,10.0,WSW,18.4,24.2,N/A,,Clear,240,2012-10-11 18:15:00
1:35 PM,65.1,30.2,27,30.07,10.0,WSW,16.1,24.2,N/A,,Clear,240,2012-10-11 18:35:00
1:55 PM,66.0,30.7,27,30.06,10.0,WSW,15.0,21.9,N/A,,Clear,240,2012-10-11 18:55:00
2:15 PM,66.6,31.3,27,30.06,10.0,WSW,16.1,24.2,N/A,,Clear,240,2012-10-11 19:15:00
2:35 PM,64.2,31.6,30,30.06,10.0,SW,12.7,17.3,N/A,,Clear,230,2012-10-11 19:35:00
2:55 PM,65.3,32.2,29,30.05,10.0,SW,12.7,17.3,N/A,,Clear,230,2012-10-11 19:55:00
3:15 PM,66.2,32.0,28,30.05,10.0,WSW,16.1,20.7,N/A,,Clear,250,2012-10-11 20:15:00
3:35 PM,66.0,32.7,29,30.05,10.0,SW,11.5,18.4,N/A,,Clear,230,2012-10-11 20:35:00
3:55 PM,65.8,33.1,30,30.06,10.0,SW,11.5,17.3,N/A,,Clear,230,2012-10-11 20:55:00
4:15 PM,65.1,32.9,30,30.07,10.0,West,13.8,20.7,N/A,,Scattered Clouds,280,2012-10-11 21:15:00
4:55 PM,64.4,32.0,30,30.08,10.0,WNW,16.1,20.7,N/A,,Mostly Cloudy,300,2012-10-11 21:55:00
5:15 PM,60.1,33.3,36,30.10,10.0,NW,16.1,21.9,N/A,,Mostly Cloudy,310,2012-10-11 22:15:00
5:35 PM,59.0,35.6,42,30.11,10.0,NNW,13.8,-,N/A,,Mostly Cloudy,330,2012-10-11 22:35:00
5:55 PM,56.5,35.1,45,30.13,10.0,NW,13.8,19.6,N/A,,Mostly Cloudy,320,2012-10-11 22:55:00
6:15 PM,56.5,37.0,48,30.14,10.0,NNW,15.0,19.6,N/A,,Overcast,330,2012-10-11 23:15:00
6:35 PM,54.0,37.6,54,30.14,10.0,NNW,16.1,20.7,N/A,,Overcast,330,2012-10-11 23:35:00
6:55 PM,54.0,40.8,61,30.16,10.0,NNW,13.8,21.9,N/A,,Overcast,330,2012-10-11 23:55:00
7:15 PM,51.4,39.9,65,30.18,10.0,NNW,9.2,16.1,N/A,,Overcast,340,2012-10-12 00:15:00
7:35 PM,51.4,41.0,68,30.18,10.0,NW,8.1,-,N/A,,Overcast,320,2012-10-12 00:35:00
7:55 PM,50.0,41.0,71,30.19,10.0,NNW,8.1,-,N/A,,Overcast,330,2012-10-12 00:55:00
8:15 PM,50.0,39.7,68,30.20,10.0,NNW,6.9,-,N/A,,Overcast,340,2012-10-12 01:15:00
8:35 PM,49.5,37.9,65,30.22,10.0,NW,10.4,16.1,N/A,,Overcast,320,2012-10-12 01:35:00
8:55 PM,48.2,37.4,66,30.23,10.0,NNW,11.5,17.3,N/A,,Light Drizzle,340,2012-10-12 01:55:00
9:15 PM,47.3,36.5,66,30.22,10.0,NNW,8.1,-,N/A,,Drizzle,340,2012-10-12 02:15:00
9:55 PM,46.4,35.6,66,30.25,10.0,North,4.6,-,N/A,,Light Drizzle,350,2012-10-12 02:55:00
10:15 PM,46.4,35.8,67,30.26,10.0,Calm,Calm,-,N/A,,Drizzle,0,2012-10-12 03:15:00
10:35 PM,46.4,35.6,66,30.27,10.0,NNW,3.5,-,N/A,,Overcast,330,2012-10-12 03:35:00
10:55 PM,44.6,35.6,71,30.28,10.0,NNW,3.5,-,N/A,,Overcast,330,2012-10-12 03:55:00
11:35 PM,45.3,34.9,67,30.30,10.0,NW,6.9,-,N/A,,Overcast,320,2012-10-12 04:35:00
11:55 PM,46.4,31.3,56,30.30,10.0,NNW,6.9,-,N/A,,Overcast,340,2012-10-12 04:55:00